Regional Weather Roundup
Issued by NWS Sterling, VA

Home | Current Version | Previous Version | Text Only | Print | Product List | Glossary On
Versions: 1 2 3 4 5 6 7 8 9 10 11 12 13 14 15 16 17 18 19 20 21 22 23 24 25 26 27 28 29 30 31 32 33 34 35 36 37 38 39 40 41 42 43 44 45 46 47 48 49 50
000
ASUS41 KLWX 080610
RWRLWX

REGIONAL WEATHER ROUNDUP
NATIONAL WEATHER SERVICE BALTIMORE MD/WASHINGTON DC
100 AM EST MON FEB 08 2016

Note: "FAIR" indicates few or no clouds below 12,000 feet
with no significant weather and/or obstructions to visibility.
 TC=TEMPERATURE CELSIUS

 * =Non NWS site. Station does not report precipitation (e.g. rain,
    snow, etc.), thunder, or fog.

DCZ001-MDZ009-015-VAZ040>042-051-053>054-080700-
WASHINGTON METRO

CITY           SKY/WX    TMP DP  RH WIND       PRES   REMARKS
WASHINGTON NAT CLOUDY    38  24  57 N10       29.83F
DULLES         MOCLDY    34  22  61 N7        29.83F
ANDREWS AFB    CLOUDY    36  23  59 N10       29.80F WCI  29
FT BELVOIR     CLOUDY    38  21  51 NW6       29.82F
QUANTICO       FAIR      40  22  48 N12       29.83F
COLLEGE PARK*  FAIR      37  23  56 NW3       29.83F
LEESBURG*      FAIR      34  28  80 N6        29.85F
MANASSAS*      FAIR      34  25  69 N7        29.83F
GAITHERSBURG*  CLOUDY    34  18  51 CALM      29.86F

$$

MDZ006>007-011-014-080700-
BALTIMORE METRO

CITY           SKY/WX    TMP DP  RH WIND       PRES   REMARKS
BWI AIRPORT    CLOUDY    37  21  52 N7        29.82F
MD SCIENCE CTR   N/A     39  22  50 MISG      29.82F
MARTIN STATE   CLOUDY    37  27  65 NW3       29.84F
ANNAPOLIS      CLOUDY    39  25  57 N9        29.80F
FORT MEADE*    MOCLDY    36  23  60 N5        29.84F

$$

MDZ012-015-019>023-080700-
MARYLAND EASTERN SHORE

CITY           SKY/WX    TMP DP  RH WIND       PRES   REMARKS
OCEAN CITY     CLOUDY    41  34  76 N17G32    29.67F
SALISBURY      CLOUDY    40  32  73 N14       29.71F
BAY BRIDGE AP*   N/A     37  28  70 N12       29.81F
CAMBRIDGE*     CLOUDY    37  27  65 N10G16    29.75F
EASTON*        CLOUDY    39  26  60 NE10G16   29.81F

$$

MDZ017>025-080700-
SOUTHERN MARYLAND

CITY           SKY/WX    TMP DP  RH WIND       PRES   REMARKS
PATUXENT RIVER CLOUDY    40  25  55 N15G26    29.76F
ST INIGOES     CLOUDY    41  26  55 N8G18     29.74F
LEONARDTOWN*   CLOUDY    39  23  52 N6        29.78F

$$

MDZ003>005-080700-
NORTH CENTRAL MARYLAND

CITY           SKY/WX    TMP DP  RH WIND       PRES   REMARKS
FREDERICK*     CLOUDY    28  27  93 CALM      29.88F
HAGERSTOWN APT CLOUDY    30  21  69 N6        29.84F
WESTMINSTER*   CLOUDY    34  27  75 CALM      29.82F

$$

MDZ501>502-080700-
WESTERN MARYLAND

CITY           SKY/WX    TMP DP  RH WIND       PRES   REMARKS
OAKLAND*       CLEAR     32  21  64 CALM      29.78F
CUMBERLAND*    CLEAR     30  27  86 CALM      29.90S

$$

VAZ025>031-080700-
SHENANDOAH VALLEY

CITY           SKY/WX    TMP DP  RH WIND       PRES   REMARKS
WINCHESTER*    FAIR      30  23  74 W3        29.85S
FRONT ROYAL*   FAIR      27  23  86 CALM      29.84F
LURAY*         FAIR      27  25  93 CALM      29.84F
NEW MARKET*    FAIR      24  22  94 CALM      29.85S
STAUNTON*      FAIR      29  26  88 CALM      29.85F
WAYNESBORO*    FAIR      26  22  86 CALM      29.83F

$$

WVZ021-048>050-054>055-080700-
EASTERN WEST VIRGINIA PANHANDLE

CITY           SKY/WX    TMP DP  RH WIND       PRES   REMARKS
MARTINSBURG    FAIR      24  20  84 CALM      29.85F
PETERSBURG*    FAIR      26  24  92 CALM      29.87F

$$

VAZ036>039-050-080700-
CENTRAL FOOTHILLS

CITY           SKY/WX    TMP DP  RH WIND       PRES   REMARKS
CHARLOTTESVILL FAIR      33  23  66 W5        29.83F
CULPEPER*      FAIR      29  22  76 CALM      29.85F
ORANGE*        FAIR      36  23  60 NW8       29.85F
GORDONSVILLE*  FAIR      37  22  54 N3        29.83F
WARRENTON*     FAIR      32  25  75 CALM      29.83F

$$

VAZ055>057-080700-
NORTH AND CENTRAL PIEDMONT

CITY           SKY/WX    TMP DP  RH WIND       PRES   REMARKS
FREDERICKSBRG* FAIR      37  25  62 NW7       29.81F
STAFFORD*      FAIR      35  23  61 NW9       29.86F WCI  28

$$

NCZ024-NYZ072-PAZ021-071-VAZ022-071-080700-
OTHER REGIONAL OBSERVATIONS

CITY           SKY/WX    TMP DP  RH WIND       PRES   REMARKS
NEW YORK CITY  MOCLDY    39  21  48 NE15G21   29.88F
PHILADELPHIA   CLOUDY    40  24  53 NE15      29.82F
PITTSBURGH     PTCLDY    34  22  61 S5        29.79F
ROANOKE        FAIR      31  24  75 CALM      29.85F
RICHMOND       CLOUDY    38  21  50 N14       29.77F
RALEIGH        CLOUDY    38  21  50 VRB3      29.82F

$$

ANZ530>537-080700-
MARINE OBSERVATIONS

STATION/POSITION TIME  TEMP    WIND        PRES
                       AIR SEA DIR/SP/G
                 (UTC) (F)     (DEG/KT/KT) (MB)
THOMAS PT LIGHT  NOT AVBL
BALT KEY BRIDGE  0500   39     350/  9/ 10 1010.8F
COVE POINT       0500   39      10/ 15/ 23 1009.4F
LEWISETTA        0500   41 41  360/ 11/ 15 1008.0F
SOLOMONS ISLAND  0500   40 41  350/ 14/ 18   N/A

$$




USA.gov is the U.S. government's official web portal to all federal, state and local government web resources and services.